Flag for U.S.A. Weather past 2 weeks in Tallahassee, Florida, U.S.A.

Now
61 °F

Passing clouds.


Feels Like: 61 °F
Forecast: 59 / 79 °F
Wind: No wind

Location: Tallahassee Regional Airport

Current Time: Mar 4, 2015 at 12:23:41 AM

Latest Report: Mar 3, 2015 at 11:53 PM


Visibility: 10 mi

Pressure: 30.11 "Hg

Humidity: 87%

Dew point: 57 °F

Location of TallahasseeLocation

Historic Weather in Tallahassee — Graph

°F

Tallahassee temperature yesterday

Maximum temperature yesterday: 81 °F (at 12:53 PM)
Minimum temperature yesterday: 56 °F (at 6:53 AM)
Average temperature yesterday: 68 °F

Past Weeks' High & Low Weather Summary

 TemperatureHumidityPressure
High81 °F (Mar 3, 12:53 PM)100% (Feb 17, 4:53 AM)30.47 "Hg (Feb 17, 4:53 AM)
Low22 °F (Feb 20, 3:53 AM)16% (Feb 20, 1:53 PM)29.50 "Hg (Feb 25, 7:53 PM)
Average52 °F70%30.17 "Hg
* Reported Feb 16 10:53 PM — Mar 3 10:53 PM, Tallahassee, Weather by CustomWeather, © 2015

Note: Actual official high and low records may vary slightly from our data, if they occured in-between our weather recording intervals... More about our weather records

Advertising

Tallahassee weather history for previous 24 hours

 ConditionsComfort  
Time TempWeatherWind HumidityBarometerVisibility
10:53 PM
Tue, Mar 3
61 °FFog.No wind93%30.12 "Hg1 mi
9:53 PM65 °FClear.No wind91%30.12 "Hg10 mi
8:53 PM66 °FClear.No wind87%30.12 "Hg10 mi
7:53 PM70 °FClear.3 mph79%30.12 "Hg10 mi
6:53 PM73 °FPassing clouds.7 mph74%30.11 "Hg10 mi
5:53 PM76 °FScattered clouds.9 mph67%30.11 "Hg10 mi
4:53 PM80 °FBroken clouds.12 mph56%30.11 "Hg10 mi
3:53 PM81 °FPartly sunny.13 mph54%30.11 "Hg10 mi
2:53 PM81 °FPartly sunny.12 mph54%30.12 "Hg10 mi
1:53 PM80 °FPartly sunny.8 mph56%30.14 "Hg10 mi
12:53 PM81 °FScattered clouds.8 mph54%30.16 "Hg10 mi
11:53 AM79 °FPartly sunny.10 mph58%30.19 "Hg10 mi
10:53 AM77 °FScattered clouds.7 mph62%30.20 "Hg10 mi
9:53 AM73 °FScattered clouds.9 mph71%30.21 "Hg10 mi
8:53 AM65 °FScattered clouds.5 mph87%30.22 "Hg10 mi
8:04 AM59 °FFog.No wind90%30.22 "Hg0 mi
7:53 AM58 °FFog.No wind93%30.21 "Hg0 mi
6:53 AM56 °FFog.No wind93%30.19 "Hg5 mi
5:52 AM57 °FFog.No wind93%30.19 "Hg0 mi
4:53 AM58 °FFog.No wind93%30.18 "Hg1 mi
3:53 AM59 °FFog.No wind96%30.17 "Hg0 mi
2:53 AM59 °FFog.No wind93%30.18 "Hg0 mi
1:53 AM61 °FPassing clouds.No wind87%30.21 "Hg10 mi
12:53 AM63 °FClear.No wind87%30.21 "Hg10 mi
Weather by CustomWeather, © 2015

See weather overviewHow to use our weather pages